Location: Bazugues
(43.4465°N, 0.3432°E)
Time: 09:37:46
(UTC+00:00)

YAOGAN 1 - Pass Details

Date: 12 January 2026
Orbit: 605 x 607 km, 97.8° (Epoch: 18 February)

Event Time Altitude Azimuth Distance (km) Brightness Sun altitude
Rises 18:59:51 0° 187° (S) 2,850 6.1 -24.0°
Reaches altitude 10° 19:02:10 10° 196° (SSW) 1,951 5.4 -24.4°
Maximum altitude 19:06:04 35° 263° (W) 989 4.1 -25.1°
Drops below altitude 10° 19:09:59 10° 330° (NNW) 1,966 5.4 -25.8°
Sets 19:12:20 0° 339° (NNW) 2,875 6.2 -26.2°
